EWG32A EDDW-EDDS

Flight info

Callsign EWG32A
Flight time 0h 52m
Altitude 33000
Route NIE2M/09 NIE Z88 SAS DCT BERXO DCT SILWE DCT OSBIT P605 TOSTU T726 LBU
Aircraft A320/M-SDE3FGHIRWY/LB1

Departure

Time 2026-05-06 11:36
Airport Bremen Airport (EDDW)

Arrival

Time 2026-05-06 12:28
Airport Stuttgart Airport (EDDS)
Time Latitude Longitude Altitude Speed Heading
2026-05-06 11:24 53.05168 8.78534 22 ft 0 kts 46°
2026-05-06 11:27 53.05161 8.78520 24 ft 4 kts 49°
2026-05-06 11:28 53.05144 8.78485 23 ft 4 kts 59°
2026-05-06 11:28 53.05134 8.78446 26 ft 4 kts 87°
2026-05-06 11:28 53.05137 8.78416 24 ft 0 kts 130°
2026-05-06 11:30 53.05136 8.78417 25 ft 0 kts 143°
2026-05-06 11:30 53.05132 8.78412 26 ft 1 kts 195°
2026-05-06 11:31 53.05133 8.78401 26 ft 1 kts 276°
2026-05-06 11:31 53.05148 8.78384 23 ft 2 kts 313°
2026-05-06 11:31 53.05149 8.78380 23 ft 0 kts 310°
2026-05-06 11:32 53.05152 8.78375 23 ft 3 kts 309°
2026-05-06 11:32 53.05168 8.78315 23 ft 9 kts 291°
2026-05-06 11:32 53.05190 8.78186 22 ft 14 kts 284°
2026-05-06 11:33 53.05181 8.78054 22 ft 10 kts 247°
2026-05-06 11:33 53.05144 8.77950 22 ft 12 kts 233°
2026-05-06 11:33 53.05075 8.77819 22 ft 18 kts 228°
2026-05-06 11:33 53.04985 8.77656 22 ft 19 kts 227°
2026-05-06 11:34 53.04897 8.77523 22 ft 16 kts 212°
2026-05-06 11:34 53.04806 8.77464 24 ft 12 kts 192°
2026-05-06 11:34 53.04738 8.77453 23 ft 8 kts 177°
2026-05-06 11:34 53.04681 8.77488 22 ft 11 kts 142°
2026-05-06 11:35 53.04660 8.77622 21 ft 2 kts 86°
2026-05-06 11:35 53.04662 8.77657 21 ft 9 kts 87°
2026-05-06 11:35 53.04672 8.78108 21 ft 78 kts 88°
2026-05-06 11:35 53.04703 8.79383 25 ft 140 kts 88°
2026-05-06 11:36 53.04737 8.81183 411 ft 163 kts 85°
2026-05-06 11:36 53.04792 8.83060 1351 ft 162 kts 83°
2026-05-06 11:36 53.04866 8.85002 1994 ft 177 kts 85°
2026-05-06 11:36 53.04500 8.87121 2410 ft 212 kts 117°
2026-05-06 11:37 53.03557 8.89196 2947 ft 240 kts 131°
2026-05-06 11:37 53.02186 8.90923 3762 ft 252 kts 140°
2026-05-06 11:37 53.00728 8.92617 4687 ft 258 kts 142°
2026-05-06 11:37 52.99238 8.94330 5575 ft 262 kts 142°
2026-05-06 11:38 52.97730 8.96066 6447 ft 265 kts 142°
2026-05-06 11:38 52.96211 8.97829 7229 ft 269 kts 142°
2026-05-06 11:38 52.94662 8.99642 8015 ft 274 kts 142°
2026-05-06 11:38 52.93113 9.01467 8779 ft 279 kts 142°
2026-05-06 11:39 52.91500 9.03373 9597 ft 284 kts 142°
2026-05-06 11:39 52.89891 9.05274 10254 ft 294 kts 142°
2026-05-06 11:39 52.88135 9.07346 10531 ft 317 kts 143°
2026-05-06 11:39 52.86330 9.09471 11047 ft 327 kts 143°
2026-05-06 11:40 52.84462 9.11657 11774 ft 331 kts 145°
2026-05-06 11:40 52.82470 9.13577 12612 ft 332 kts 161°
2026-05-06 11:40 52.80222 9.14410 13436 ft 333 kts 172°
2026-05-06 11:40 52.77920 9.14986 14083 ft 336 kts 173°
2026-05-06 11:41 52.75593 9.15560 14676 ft 340 kts 173°
2026-05-06 11:41 52.73243 9.16138 15296 ft 343 kts 173°
2026-05-06 11:41 52.70873 9.16723 15916 ft 346 kts 172°
2026-05-06 11:41 52.68475 9.17319 16522 ft 349 kts 172°
2026-05-06 11:42 52.66058 9.17920 17134 ft 353 kts 172°
2026-05-06 11:42 52.63621 9.18525 17723 ft 356 kts 173°
2026-05-06 11:42 52.61159 9.19135 18292 ft 360 kts 172°
2026-05-06 11:42 52.58670 9.19749 18792 ft 364 kts 172°
2026-05-06 11:43 52.56155 9.20367 19303 ft 367 kts 172°
2026-05-06 11:43 52.53610 9.20992 19821 ft 370 kts 172°
2026-05-06 11:43 52.51054 9.21618 20304 ft 373 kts 172°
2026-05-06 11:44 52.45879 9.22872 21271 ft 379 kts 172°
2026-05-06 11:44 52.43260 9.23507 21776 ft 381 kts 172°
2026-05-06 11:44 52.40630 9.24148 22310 ft 383 kts 172°
2026-05-06 11:44 52.37981 9.24795 22734 ft 387 kts 172°
2026-05-06 11:45 52.35301 9.25448 23163 ft 391 kts 172°
2026-05-06 11:45 52.32600 9.26107 23577 ft 394 kts 172°
2026-05-06 11:45 52.29870 9.26775 23926 ft 397 kts 172°
2026-05-06 11:45 52.27133 9.27443 24328 ft 399 kts 171°
2026-05-06 11:46 52.24381 9.28111 24739 ft 400 kts 171°
2026-05-06 11:46 52.21614 9.28780 25096 ft 403 kts 171°
2026-05-06 11:46 52.18836 9.29453 25482 ft 405 kts 171°
2026-05-06 11:46 52.16046 9.30127 25865 ft 407 kts 171°
2026-05-06 11:47 52.13235 9.30805 26201 ft 411 kts 172°
2026-05-06 11:47 52.10399 9.31484 26544 ft 413 kts 172°
2026-05-06 11:47 52.07575 9.32157 26880 ft 416 kts 172°
2026-05-06 11:47 52.04704 9.32843 27218 ft 418 kts 172°
2026-05-06 11:48 52.01821 9.33536 27588 ft 419 kts 172°
2026-05-06 11:48 51.98926 9.34232 27928 ft 422 kts 172°
2026-05-06 11:48 51.96019 9.34931 28301 ft 423 kts 172°
2026-05-06 11:48 51.93093 9.35634 28648 ft 425 kts 172°
2026-05-06 11:49 51.90155 9.36336 28954 ft 428 kts 172°
2026-05-06 11:49 51.87189 9.37039 29242 ft 432 kts 172°
2026-05-06 11:49 51.84203 9.37745 29537 ft 435 kts 172°
2026-05-06 11:49 51.81201 9.38455 29829 ft 437 kts 172°
2026-05-06 11:50 51.78185 9.39172 30090 ft 439 kts 172°
2026-05-06 11:50 51.75160 9.39896 30341 ft 440 kts 172°
2026-05-06 11:50 51.72129 9.40620 30596 ft 441 kts 172°
2026-05-06 11:50 51.69079 9.41343 30853 ft 443 kts 172°
2026-05-06 11:51 51.66037 9.42060 31154 ft 442 kts 173°
2026-05-06 11:51 51.63003 9.42773 31581 ft 439 kts 173°
2026-05-06 11:51 51.59988 9.43481 31989 ft 437 kts 173°
2026-05-06 11:51 51.56988 9.44183 32381 ft 434 kts 173°
2026-05-06 11:52 51.53996 9.44882 32716 ft 433 kts 174°
2026-05-06 11:52 51.51066 9.45570 32781 ft 426 kts 174°
2026-05-06 11:52 51.45283 9.46930 32783 ft 417 kts 174°
2026-05-06 11:53 51.39560 9.48276 32783 ft 414 kts 174°
2026-05-06 11:53 51.33857 9.49597 32783 ft 414 kts 174°
2026-05-06 11:54 51.28160 9.50916 32783 ft 413 kts 174°
2026-05-06 11:54 51.22468 9.52228 32776 ft 413 kts 174°
2026-05-06 11:55 51.16777 9.53556 32747 ft 412 kts 175°
2026-05-06 11:55 51.11115 9.54866 32775 ft 410 kts 175°
2026-05-06 11:56 51.05475 9.56155 32784 ft 408 kts 175°
2026-05-06 11:56 50.99898 9.57434 32778 ft 407 kts 175°
2026-05-06 11:57 50.94283 9.58722 32765 ft 407 kts 175°
2026-05-06 11:57 50.88683 9.60002 32761 ft 406 kts 175°
2026-05-06 11:58 50.83093 9.61279 32759 ft 405 kts 175°
2026-05-06 11:58 50.77504 9.62547 32756 ft 405 kts 175°
2026-05-06 11:59 50.72867 9.63590 32754 ft 405 kts 175°
2026-05-06 11:59 50.67284 9.64859 32753 ft 405 kts 175°
2026-05-06 12:00 50.61710 9.66119 32750 ft 405 kts 175°
2026-05-06 12:00 50.56130 9.67367 32752 ft 405 kts 175°
2026-05-06 12:01 50.50558 9.68625 32590 ft 402 kts 175°
2026-05-06 12:01 50.47814 9.69247 32313 ft 397 kts 175°
2026-05-06 12:01 50.45084 9.69861 32048 ft 394 kts 176°
2026-05-06 12:02 50.42378 9.70467 31794 ft 392 kts 176°
2026-05-06 12:02 50.39693 9.71068 31530 ft 390 kts 176°
2026-05-06 12:02 50.37009 9.71664 31276 ft 388 kts 176°
2026-05-06 12:02 50.34345 9.72256 31023 ft 386 kts 176°
2026-05-06 12:03 50.31732 9.72836 30758 ft 381 kts 176°
2026-05-06 12:03 50.29099 9.73422 30385 ft 375 kts 176°
2026-05-06 12:03 50.26525 9.73995 29947 ft 372 kts 176°
2026-05-06 12:03 50.23974 9.74563 29442 ft 368 kts 176°
2026-05-06 12:04 50.21458 9.75125 29005 ft 362 kts 175°
2026-05-06 12:04 50.19014 9.75666 28584 ft 357 kts 176°
2026-05-06 12:04 50.16573 9.76205 28181 ft 352 kts 175°
2026-05-06 12:04 50.14165 9.76736 27786 ft 347 kts 176°
2026-05-06 12:05 50.11788 9.77261 27395 ft 342 kts 176°
2026-05-06 12:05 50.09450 9.77779 27023 ft 338 kts 176°
2026-05-06 12:05 50.07131 9.78277 26647 ft 333 kts 178°
2026-05-06 12:05 50.04835 9.78464 26257 ft 328 kts 181°
2026-05-06 12:06 50.02560 9.78604 25874 ft 327 kts 181°
2026-05-06 12:06 50.00296 9.78745 25475 ft 326 kts 181°
2026-05-06 12:06 49.98029 9.78887 25085 ft 326 kts 180°
2026-05-06 12:06 49.95765 9.79031 24686 ft 325 kts 180°
2026-05-06 12:07 49.93502 9.79176 24259 ft 325 kts 180°
2026-05-06 12:07 49.91247 9.79319 23844 ft 325 kts 180°
2026-05-06 12:07 49.88990 9.79463 23423 ft 325 kts 180°
2026-05-06 12:07 49.86734 9.79608 22945 ft 324 kts 180°
2026-05-06 12:08 49.84486 9.79756 22488 ft 322 kts 180°
2026-05-06 12:08 49.82250 9.79904 22082 ft 321 kts 180°
2026-05-06 12:08 49.80019 9.80050 21662 ft 319 kts 180°
2026-05-06 12:08 49.77803 9.80192 21244 ft 318 kts 180°
2026-05-06 12:09 49.75595 9.80330 20836 ft 317 kts 180°
2026-05-06 12:09 49.73395 9.80468 20425 ft 316 kts 180°
2026-05-06 12:09 49.71200 9.80604 20016 ft 315 kts 179°
2026-05-06 12:09 49.69004 9.80729 19605 ft 315 kts 180°
2026-05-06 12:10 49.66818 9.80834 19202 ft 315 kts 180°
2026-05-06 12:10 49.64634 9.80931 18798 ft 314 kts 180°
2026-05-06 12:10 49.62469 9.81024 18404 ft 314 kts 180°
2026-05-06 12:10 49.60288 9.81227 17991 ft 315 kts 173°
2026-05-06 12:11 49.58128 9.81812 17547 ft 315 kts 172°
2026-05-06 12:11 49.55974 9.82411 17138 ft 314 kts 172°
2026-05-06 12:11 49.53828 9.83011 16738 ft 312 kts 172°
2026-05-06 12:11 49.51695 9.83607 16338 ft 311 kts 172°
2026-05-06 12:12 49.49564 9.84202 15949 ft 311 kts 172°
2026-05-06 12:12 49.47439 9.84789 15548 ft 310 kts 172°
2026-05-06 12:12 49.45311 9.85375 15163 ft 310 kts 172°
2026-05-06 12:12 49.43188 9.85958 14768 ft 310 kts 172°
2026-05-06 12:13 49.41068 9.86540 14372 ft 309 kts 172°
2026-05-06 12:13 49.38956 9.87118 13981 ft 309 kts 172°
2026-05-06 12:13 49.36838 9.87702 13593 ft 308 kts 172°
2026-05-06 12:13 49.34726 9.88287 13166 ft 308 kts 172°
2026-05-06 12:14 49.32649 9.88862 12780 ft 306 kts 172°
2026-05-06 12:14 49.30553 9.89440 12376 ft 305 kts 171°
2026-05-06 12:14 49.28467 9.90011 11981 ft 304 kts 171°
2026-05-06 12:14 49.26392 9.90579 11586 ft 303 kts 171°
2026-05-06 12:15 49.24315 9.91145 11180 ft 302 kts 171°
2026-05-06 12:15 49.22247 9.91708 10771 ft 302 kts 171°
2026-05-06 12:15 49.20165 9.92186 10361 ft 303 kts 180°
2026-05-06 12:15 49.18105 9.91661 9955 ft 302 kts 202°
2026-05-06 12:16 49.16374 9.89909 9673 ft 296 kts 226°
2026-05-06 12:16 49.15267 9.87343 9538 ft 287 kts 246°
2026-05-06 12:16 49.14516 9.84597 9322 ft 279 kts 238°
2026-05-06 12:16 49.13271 9.82377 9188 ft 276 kts 217°
2026-05-06 12:17 49.11571 9.81059 9062 ft 275 kts 195°
2026-05-06 12:17 49.09683 9.80602 8918 ft 274 kts 188°
2026-05-06 12:17 49.07789 9.80230 8799 ft 274 kts 188°
2026-05-06 12:17 49.05902 9.79859 8656 ft 273 kts 188°
2026-05-06 12:18 49.04011 9.79486 8534 ft 273 kts 188°
2026-05-06 12:18 49.02129 9.79115 8405 ft 273 kts 188°
2026-05-06 12:18 49.00249 9.78742 8267 ft 272 kts 188°
2026-05-06 12:18 48.98374 9.78371 8144 ft 272 kts 188°
2026-05-06 12:19 48.96497 9.78002 8018 ft 272 kts 188°
2026-05-06 12:19 48.94624 9.77634 7889 ft 271 kts 188°
2026-05-06 12:19 48.92772 9.77272 7758 ft 263 kts 188°
2026-05-06 12:19 48.90995 9.76922 7628 ft 252 kts 188°
2026-05-06 12:20 48.89321 9.76578 7502 ft 240 kts 191°
2026-05-06 12:20 48.87741 9.75794 7284 ft 234 kts 202°
2026-05-06 12:20 48.86280 9.74819 7038 ft 231 kts 204°
2026-05-06 12:20 48.84810 9.73808 6786 ft 228 kts 204°
2026-05-06 12:21 48.83368 9.72813 6527 ft 227 kts 204°
2026-05-06 12:21 48.81935 9.71826 6293 ft 226 kts 204°
2026-05-06 12:21 48.80591 9.70585 5990 ft 228 kts 220°
2026-05-06 12:21 48.79437 9.68961 5684 ft 230 kts 224°
2026-05-06 12:22 48.78296 9.67255 5375 ft 230 kts 224°
2026-05-06 12:22 48.77222 9.65475 5070 ft 230 kts 238°
2026-05-06 12:22 48.76646 9.63216 4774 ft 230 kts 253°
2026-05-06 12:22 48.76224 9.60879 4472 ft 230 kts 254°
2026-05-06 12:23 48.75796 9.58534 4167 ft 230 kts 254°
2026-05-06 12:23 48.75370 9.56234 4021 ft 222 kts 254°
2026-05-06 12:23 48.74965 9.54056 4024 ft 206 kts 254°
2026-05-06 12:23 48.74596 9.52073 4041 ft 188 kts 254°
2026-05-06 12:24 48.74247 9.50201 4032 ft 181 kts 253°
2026-05-06 12:24 48.73907 9.48381 4023 ft 178 kts 253°
2026-05-06 12:24 48.73570 9.46578 4029 ft 178 kts 253°
2026-05-06 12:24 48.73231 9.44763 3917 ft 178 kts 254°
2026-05-06 12:25 48.72893 9.42956 3715 ft 177 kts 254°
2026-05-06 12:25 48.72559 9.41170 3492 ft 176 kts 254°
2026-05-06 12:25 48.72227 9.39399 3260 ft 174 kts 254°
2026-05-06 12:25 48.71894 9.37623 3025 ft 175 kts 254°
2026-05-06 12:26 48.71566 9.35875 2775 ft 168 kts 254°
2026-05-06 12:26 48.71260 9.34247 2544 ft 154 kts 254°
2026-05-06 12:26 48.70974 9.32728 2355 ft 146 kts 253°
2026-05-06 12:26 48.70699 9.31268 2150 ft 144 kts 254°
2026-05-06 12:27 48.70426 9.29816 1956 ft 143 kts 256°
2026-05-06 12:27 48.70152 9.28367 1767 ft 144 kts 256°
2026-05-06 12:27 48.69868 9.26905 1594 ft 144 kts 254°
2026-05-06 12:27 48.69598 9.25434 1380 ft 145 kts 256°
2026-05-06 12:28 48.69327 9.23983 1217 ft 143 kts 255°
2026-05-06 12:28 48.69093 9.22740 1228 ft 101 kts 254°
2026-05-06 12:28 48.68945 9.21963 1253 ft 59 kts 253°
2026-05-06 12:28 48.68844 9.21424 1265 ft 49 kts 254°
2026-05-06 12:29 48.68757 9.20973 1269 ft 41 kts 254°
2026-05-06 12:29 48.68687 9.20595 1276 ft 30 kts 254°
2026-05-06 12:29 48.68685 9.20298 1278 ft 27 kts 281°
2026-05-06 12:29 48.68708 9.20151 1284 ft 10 kts 284°
2026-05-06 12:30 48.68722 9.20078 1289 ft 5 kts 295°
2026-05-06 12:30 48.68756 9.20019 1288 ft 10 kts 316°
2026-05-06 12:30 48.68816 9.19920 1288 ft 15 kts 312°
2026-05-06 12:30 48.68879 9.19794 1285 ft 15 kts 273°
2026-05-06 12:31 48.68856 9.19639 1288 ft 13 kts 257°
2026-05-06 12:31 48.68889 9.19594 1290 ft 2 kts 356°
2026-05-06 12:31 48.68899 9.19592 1288 ft 1 kts 351°
2026-05-06 12:31 48.68914 9.19585 1288 ft 2 kts 344°
2026-05-06 12:32 48.68920 9.19583 1285 ft 0 kts 344°